Location: Cartignies
(50.0929°N, 3.8447°E)
Time: 13:29:21
(UTC+00:00)

Cosmos 968 Rocket - Pass Details

Date: 12 January 2026
Orbit: 737 x 764 km, 74.0° (Epoch: 16 February)

Event Time Altitude Azimuth Distance (km) Brightness Sun altitude
Rises 16:59:55 0° 340° (NNW) 3,219 6.7 -8.3°
Reaches altitude 10° 17:02:30 10° 349° (N) 2,286 5.8 -8.7°
Maximum altitude 17:07:14 35° 55° (NE) 1,210 4.0 -9.4°
Drops below altitude 10° 17:11:53 10° 121° (ESE) 2,256 5.6 -10.1°
Sets 17:14:25 0° 130° (SE) 3,172 6.4 -10.5°
